| time (UTC) | temp F | wind direction | speed MPH | gust MPH | rain 1hr in | rain 24hr in | rain mn in | humidity % | barometer mb |
| 20260903165349 | 92 | 137 | 2.0 | 6.0 | 0.00 | 0.00 | 0.00 | 66 | 1013.1 |
| 20260903164843 | 92 | 200 | 4.0 | 6.0 | 0.00 | 0.00 | 0.00 | 67 | 1013.2 |
| 20260903164338 | 92 | 157 | 3.0 | 6.0 | 0.00 | 0.00 | 0.00 | 67 | 1013.2 |
| 20260903163837 | 92 | 120 | 3.0 | 4.0 | 0.00 | 0.00 | 0.00 | 67 | 1013.2 |
| 20260903163334 | 91 | 163 | 0.0 | 3.0 | 0.00 | 0.00 | 0.00 | 68 | 1013.2 |
| 20260903162830 | 93 | 145 | 6.0 | 7.0 | 0.00 | 0.00 | 0.00 | 66 | 1013.2 |
| 20260903162326 | 90 | 172 | 1.0 | 2.0 | 0.00 | 0.00 | 0.00 | 71 | 1013.3 |
| 20260903161822 | 92 | 157 | 4.0 | 8.0 | 0.00 | 0.00 | 0.00 | 68 | 1013.3 |
| 20260903161317 | 91 | 135 | 2.0 | 3.0 | 0.00 | 0.00 | 0.00 | 71 | 1013.4 |
| 20260903160813 | 88 | 199 | 2.0 | 3.0 | 0.00 | 0.00 | 0.00 | 75 | 1013.3 |
| 20260903160312 | 88 | 158 | 4.0 | 4.0 | 0.00 | 0.00 | 0.00 | 74 | 1013.2 |
| 20260903155810 | 88 | 159 | 2.0 | 4.0 | 0.00 | 0.00 | 0.00 | 74 | 1013.2 |
| 20260903155306 | 87 | 167 | 0.0 | 0.0 | 0.00 | 0.00 | 0.00 | 76 | 1013.3 |
| 20260903154801 | 87 | 145 | 2.0 | 2.0 | 0.00 | 0.00 | 0.00 | 76 | 1013.0 |
| 20260903154257 | 87 | 156 | 2.0 | 4.0 | 0.00 | 0.00 | 0.00 | 76 | 1013.2 |
| 20260903153753 | 87 | 178 | 1.0 | 3.0 | 0.00 | 0.00 | 0.00 | 77 | 1013.1 |
| 20260903153249 | 86 | 162 | 0.0 | 2.0 | 0.00 | 0.00 | 0.00 | 79 | 1013.1 |
| 20260903152745 | 86 | 163 | 2.0 | 3.0 | 0.00 | 0.00 | 0.00 | 79 | 1013.2 |
| 20260903152241 | 86 | 181 | 2.0 | 2.0 | 0.00 | 0.00 | 0.00 | 80 | 1013.0 |
| 20260903151740 | 85 | 198 | 1.0 | 2.0 | 0.00 | 0.00 | 0.00 | 81 | 1013.2 |
| 20260903151236 | 85 | 156 | 3.0 | 3.0 | 0.00 | 0.00 | 0.00 | 82 | 1013.2 |
| 20260903150731 | 84 | 156 | 0.0 | 1.0 | 0.00 | 0.00 | 0.00 | 83 | 1013.1 |
| 20260903150231 | 84 | 151 | 0.0 | 2.0 | 0.00 | 0.00 | 0.00 | 83 | 1013.1 |
| 20260903145731 | 84 | 160 | 2.0 | 3.0 | 0.00 | 0.00 | 0.00 | 84 | 1013.2 |
| 20260903145226 | 84 | 148 | 0.0 | 0.0 | 0.00 | 0.00 | 0.00 | 85 | 1013.2 |
| 20260903144725 | 84 | 148 | 0.0 | 0.0 | 0.00 | 0.00 | 0.00 | 85 | 1013.4 |
| 20260903144221 | 84 | 140 | 2.0 | 3.0 | 0.00 | 0.00 | 0.00 | 84 | 1013.5 |
| 20260903143716 | 84 | 106 | 2.0 | 3.0 | 0.00 | 0.00 | 0.00 | 85 | 1013.6 |
| 20260903143212 | 84 | 151 | 0.0 | 1.0 | 0.00 | 0.00 | 0.00 | 85 | 1013.5 |
| 20260903142708 | 84 | 138 | 1.0 | 2.0 | 0.00 | 0.00 | 0.00 | 85 | 1013.5 |
| 20260903142204 | 84 | 154 | 3.0 | 4.0 | 0.00 | 0.00 | 0.00 | 84 | 1013.5 |
| 20260903141659 | 84 | 155 | 2.0 | 2.0 | 0.00 | 0.00 | 0.00 | 84 | 1013.6 |
| 20260903141154 | 84 | 148 | 2.0 | 3.0 | 0.00 | 0.00 | 0.00 | 84 | 1013.5 |
| 20260903140650 | 84 | 108 | 2.0 | 3.0 | 0.00 | 0.00 | 0.00 | 84 | 1013.5 |
| 20260903140145 | 84 | 164 | 0.0 | 3.0 | 0.00 | 0.00 | 0.00 | 84 | 1013.4 |
| 20260903135641 | 84 | 151 | 2.0 | 3.0 | 0.00 | 0.00 | 0.00 | 83 | 1013.4 |
| 20260903135135 | 84 | 160 | 1.0 | 1.0 | 0.00 | 0.00 | 0.00 | 84 | 1013.6 |
| 20260903134634 | 84 | 152 | 2.0 | 2.0 | 0.00 | 0.00 | 0.00 | 84 | 1013.6 |
| 20260903134131 | 84 | 151 | 0.0 | 2.0 | 0.00 | 0.00 | 0.00 | 83 | 1013.6 |
| 20260903133628 | 84 | 161 | 1.0 | 2.0 | 0.00 | 0.00 | 0.00 | 84 | 1013.6 |
| 20260903133124 | 83 | 155 | 0.0 | 1.0 | 0.00 | 0.00 | 0.00 | 84 | 1013.6 |
| 20260903132624 | 83 | 174 | 2.0 | 3.0 | 0.00 | 0.00 | 0.00 | 84 | 1013.5 |
| 20260903132120 | 83 | 174 | 2.0 | 3.0 | 0.00 | 0.00 | 0.00 | 84 | 1013.5 |
| 20260903131619 | 83 | 188 | 1.0 | 1.0 | 0.00 | 0.00 | 0.00 | 83 | 1013.2 |
| 20260903131118 | 83 | 196 | 3.0 | 3.0 | 0.00 | 0.00 | 0.00 | 83 | 1013.3 |
| 20260903130616 | 83 | 213 | 3.0 | 4.0 | 0.00 | 0.00 | 0.00 | 83 | 1013.4 |
| 20260903130109 | 83 | 149 | 3.0 | 3.0 | 0.00 | 0.00 | 0.00 | 84 | 1013.2 |
| 20260903125607 | 83 | 163 | 3.0 | 6.0 | 0.00 | 0.00 | 0.00 | 84 | 1013.1 |
| 20260903125102 | 83 | 168 | 1.0 | 1.0 | 0.00 | 0.00 | 0.00 | 84 | 1013.1 |
| 20260903124603 | 83 | 166 | 1.0 | 4.0 | 0.00 | 0.00 | 0.00 | 84 | 1012.7 |
| 20260903124102 | 83 | 206 | 3.0 | 3.0 | 0.00 | 0.00 | 0.00 | 85 | 1012.7 |
| 20260903123601 | 83 | 206 | 3.0 | 4.0 | 0.00 | 0.00 | 0.00 | 85 | 1012.6 |
| 20260903123101 | 83 | 199 | 3.0 | 8.0 | 0.00 | 0.00 | 0.00 | 85 | 1012.7 |
| 20260903122600 | 83 | 189 | 5.0 | 7.0 | 0.00 | 0.00 | 0.00 | 85 | 1012.6 |
| 20260903122055 | 83 | 196 | 4.0 | 4.0 | 0.00 | 0.00 | 0.00 | 85 | 1012.6 |
| 20260903121554 | 83 | 195 | 3.0 | 4.0 | 0.00 | 0.00 | 0.00 | 86 | 1012.6 |
| 20260903121050 | 83 | 197 | 3.0 | 4.0 | 0.00 | 0.00 | 0.00 | 86 | 1012.4 |
| 20260903120549 | 83 | 210 | 1.0 | 2.0 | 0.00 | 0.00 | 0.00 | 86 | 1012.4 |
| 20260903120044 | 83 | 195 | 2.0 | 3.0 | 0.00 | 0.00 | 0.00 | 86 | 1012.5 |
| 20260903115542 | 83 | 177 | 2.0 | 2.0 | 0.00 | 0.00 | 0.00 | 86 | 1012.5 |
| 20260903115037 | 83 | 208 | 2.0 | 3.0 | 0.00 | 0.00 | 0.00 | 86 | 1012.4 |
| 20260903114532 | 83 | 206 | 4.0 | 4.0 | 0.00 | 0.00 | 0.00 | 86 | 1012.5 |
| 20260903114028 | 83 | 173 | 2.0 | 2.0 | 0.00 | 0.00 | 0.00 | 86 | 1012.4 |
| 20260903113523 | 83 | 173 | 2.0 | 2.0 | 0.00 | 0.00 | 0.00 | 86 | 1012.2 |
| 20260903113020 | 83 | 219 | 3.0 | 6.0 | 0.00 | 0.00 | 0.00 | 86 | 1012.4 |
| 20260903112515 | 83 | 187 | 3.0 | 3.0 | 0.00 | 0.00 | 0.00 | 86 | 1012.4 |
| 20260903112015 | 83 | 178 | 2.0 | 2.0 | 0.00 | 0.00 | 0.00 | 86 | 1012.5 |
| 20260903111514 | 83 | 179 | 2.0 | 3.0 | 0.00 | 0.00 | 0.00 | 86 | 1012.4 |
| 20260903111011 | 83 | 207 | 4.0 | 4.0 | 0.00 | 0.00 | 0.00 | 86 | 1012.4 |
| 20260903110506 | 83 | 195 | 4.0 | 4.0 | 0.00 | 0.00 | 0.00 | 85 | 1012.5 |
| 20260903110001 | 83 | 189 | 2.0 | 3.0 | 0.00 | 0.00 | 0.00 | 86 | 1012.6 |
| 20260903105456 | 83 | 170 | 2.0 | 3.0 | 0.00 | 0.00 | 0.00 | 85 | 1012.5 |
| 20260903104955 | 83 | 189 | 4.0 | 4.0 | 0.00 | 0.00 | 0.00 | 85 | 1012.3 |
| 20260903104455 | 83 | 190 | 4.0 | 6.0 | 0.00 | 0.00 | 0.00 | 84 | 1012.3 |
| 20260903103952 | 84 | 134 | 2.0 | 3.0 | 0.00 | 0.00 | 0.00 | 84 | 1012.1 |
| 20260903103448 | 84 | 171 | 4.0 | 8.0 | 0.00 | 0.00 | 0.00 | 83 | 1012.3 |
| 20260903102943 | 84 | 173 | 4.0 | 6.0 | 0.00 | 0.00 | 0.00 | 82 | 1012.1 |
| 20260903102439 | 84 | 168 | 2.0 | 4.0 | 0.00 | 0.00 | 0.00 | 82 | 1012.1 |
| 20260903101937 | 84 | 159 | 3.0 | 7.0 | 0.00 | 0.00 | 0.00 | 82 | 1012.0 |
| 20260903101432 | 84 | 192 | 4.0 | 6.0 | 0.00 | 0.00 | 0.00 | 82 | 1012.1 |
| 20260903100928 | 84 | 195 | 4.0 | 6.0 | 0.00 | 0.00 | 0.00 | 82 | 1012.1 |
| 20260903100423 | 84 | 183 | 2.0 | 4.0 | 0.00 | 0.00 | 0.00 | 82 | 1012.1 |
| 20260903095920 | 84 | 170 | 3.0 | 4.0 | 0.00 | 0.00 | 0.00 | 82 | 1012.1 |
| 20260903095415 | 84 | 196 | 2.0 | 7.0 | 0.00 | 0.00 | 0.00 | 82 | 1012.1 |
| 20260903094909 | 84 | 201 | 3.0 | 6.0 | 0.00 | 0.00 | 0.00 | 82 | 1012.1 |
| 20260903094403 | 84 | 160 | 3.0 | 8.0 | 0.00 | 0.00 | 0.00 | 82 | 1012.1 |
| 20260903093900 | 84 | 173 | 6.0 | 7.0 | 0.00 | 0.00 | 0.00 | 81 | 1011.9 |
| 20260903093355 | 84 | 196 | 5.0 | 8.0 | 0.00 | 0.00 | 0.00 | 81 | 1012.2 |
| 20260903092850 | 84 | 154 | 3.0 | 6.0 | 0.00 | 0.00 | 0.00 | 81 | 1012.2 |
| 20260903092349 | 84 | 193 | 5.0 | 6.0 | 0.00 | 0.00 | 0.00 | 81 | 1012.1 |
| 20260903091848 | 84 | 187 | 4.0 | 6.0 | 0.00 | 0.00 | 0.00 | 81 | 1012.1 |
| 20260903091348 | 84 | 192 | 5.0 | 7.0 | 0.00 | 0.00 | 0.00 | 81 | 1012.1 |
| 20260903090843 | 84 | 200 | 4.0 | 6.0 | 0.00 | 0.00 | 0.00 | 81 | 1012.1 |
| 20260903090338 | 84 | 184 | 6.0 | 8.0 | 0.00 | 0.00 | 0.00 | 81 | 1012.3 |
| 20260903085836 | 84 | 213 | 2.0 | 6.0 | 0.00 | 0.00 | 0.00 | 81 | 1012.1 |
| 20260903085335 | 84 | 152 | 4.0 | 4.0 | 0.00 | 0.00 | 0.00 | 81 | 1012.1 |
| 20260903084834 | 84 | 124 | 4.0 | 6.0 | 0.00 | 0.00 | 0.00 | 81 | 1012.1 |
| 20260903084334 | 84 | 168 | 1.0 | 4.0 | 0.00 | 0.00 | 0.00 | 81 | 1012.1 |
| 20260903083829 | 84 | 159 | 6.0 | 8.0 | 0.00 | 0.00 | 0.00 | 81 | 1012.0 |
| 20260903083325 | 84 | 180 | 5.0 | 8.0 | 0.00 | 0.00 | 0.00 | 81 | 1012.0 |
| 20260903082824 | 84 | 176 | 5.0 | 7.0 | 0.00 | 0.00 | 0.00 | 81 | 1012.1 |
| 20260903082319 | 84 | 139 | 2.0 | 7.0 | 0.00 | 0.00 | 0.00 | 81 | 1011.9 |
| 20260903081814 | 84 | 204 | 7.0 | 8.0 | 0.00 | 0.00 | 0.00 | 81 | 1012.0 |
| 20260903081310 | 84 | 192 | 5.0 | 8.0 | 0.00 | 0.00 | 0.00 | 81 | 1011.9 |
| 20260903080806 | 84 | 210 | 7.0 | 10.0 | 0.00 | 0.00 | 0.00 | 81 | 1011.9 |
| 20260903080303 | 84 | 189 | 6.0 | 9.0 | 0.00 | 0.00 | 0.00 | 81 | 1012.0 |
| 20260903075802 | 84 | 162 | 2.0 | 4.0 | 0.00 | 0.00 | 0.00 | 81 | 1011.9 |
| 20260903075257 | 84 | 178 | 3.0 | 7.0 | 0.00 | 0.00 | 0.00 | 81 | 1011.9 |
| 20260903074756 | 84 | 142 | 2.0 | 6.0 | 0.00 | 0.00 | 0.00 | 81 | 1011.8 |
| 20260903074252 | 84 | 151 | 4.0 | 8.0 | 0.00 | 0.00 | 0.00 | 81 | 1012.0 |
| 20260903073747 | 84 | 181 | 3.0 | 6.0 | 0.00 | 0.00 | 0.00 | 81 | 1012.0 |
| 20260903073242 | 84 | 177 | 3.0 | 6.0 | 0.00 | 0.00 | 0.00 | 81 | 1012.1 |
| 20260903072739 | 84 | 149 | 3.0 | 8.0 | 0.00 | 0.00 | 0.00 | 81 | 1012.0 |
| 20260903072234 | 84 | 184 | 3.0 | 8.0 | 0.00 | 0.00 | 0.00 | 81 | 1012.1 |
| 20260903071731 | 84 | 186 | 6.0 | 8.0 | 0.00 | 0.00 | 0.00 | 81 | 1012.1 |
| 20260903071226 | 84 | 159 | 3.0 | 6.0 | 0.00 | 0.00 | 0.00 | 81 | 1012.1 |
| 20260903070726 | 84 | 134 | 6.0 | 8.0 | 0.00 | 0.00 | 0.00 | 80 | 1012.2 |
| 20260903070222 | 84 | 196 | 3.0 | 6.0 | 0.00 | 0.00 | 0.00 | 80 | 1012.3 |
| 20260903065717 | 84 | 175 | 4.0 | 8.0 | 0.00 | 0.00 | 0.00 | 80 | 1012.3 |
| 20260903065210 | 84 | 142 | 4.0 | 6.0 | 0.00 | 0.00 | 0.00 | 80 | 1012.5 |
| 20260903064704 | 84 | 146 | 3.0 | 6.0 | 0.00 | 0.00 | 0.00 | 80 | 1012.5 |
| 20260903064200 | 84 | 167 | 4.0 | 6.0 | 0.00 | 0.00 | 0.00 | 80 | 1012.5 |
| 20260903063655 | 84 | 156 | 5.0 | 8.0 | 0.00 | 0.00 | 0.00 | 80 | 1012.5 |
| 20260903063150 | 85 | 184 | 3.0 | 6.0 | 0.00 | 0.00 | 0.00 | 80 | 1012.8 |
| 20260903062646 | 85 | 154 | 5.0 | 6.0 | 0.00 | 0.00 | 0.00 | 80 | 1012.6 |
| 20260903062141 | 85 | 140 | 5.0 | 7.0 | 0.00 | 0.00 | 0.00 | 80 | 1012.7 |
| 20260903061636 | 85 | 164 | 4.0 | 7.0 | 0.00 | 0.00 | 0.00 | 80 | 1012.8 |
| 20260903061135 | 85 | 159 | 5.0 | 7.0 | 0.00 | 0.00 | 0.00 | 80 | 1012.8 |
| 20260903060630 | 85 | 162 | 4.0 | 7.0 | 0.00 | 0.00 | 0.00 | 80 | 1012.9 |
| 20260903060126 | 85 | 156 | 6.0 | 9.0 | 0.00 | 0.00 | 0.00 | 80 | 1012.8 |
| 20260903055623 | 85 | 155 | 4.0 | 4.0 | 0.00 | 0.00 | 0.00 | 80 | 1013.0 |
| 20260903055121 | 85 | 156 | 3.0 | 4.0 | 0.00 | 0.00 | 0.00 | 80 | 1013.1 |
| 20260903054616 | 85 | 172 | 2.0 | 4.0 | 0.00 | 0.00 | 0.00 | 80 | 1013.1 |
| 20260903054113 | 85 | 167 | 0.0 | 3.0 | 0.00 | 0.00 | 0.00 | 80 | 1013.1 |
| 20260903053608 | 85 | 159 | 4.0 | 6.0 | 0.00 | 0.00 | 0.00 | 80 | 1013.3 |
| 20260903053103 | 85 | 184 | 4.0 | 7.0 | 0.00 | 0.00 | 0.00 | 80 | 1013.3 |
| 20260903052559 | 85 | 185 | 3.0 | 6.0 | 0.00 | 0.00 | 0.00 | 80 | 1013.3 |
| 20260903052054 | 85 | 156 | 5.0 | 6.0 | 0.00 | 0.00 | 0.00 | 80 | 1013.2 |
| 20260903051549 | 85 | 206 | 4.0 | 4.0 | 0.00 | 0.00 | 0.00 | 80 | 1013.1 |
| 20260903051045 | 85 | 142 | 4.0 | 6.0 | 0.00 | 0.00 | 0.00 | 80 | 1013.3 |
| 20260903050544 | 85 | 171 | 4.0 | 6.0 | 0.00 | 0.00 | 0.00 | 80 | 1013.2 |
| 20260903050040 | 85 | 153 | 4.0 | 6.0 | 0.00 | 0.00 | 0.00 | 80 | 1013.3 |
| 20260903045538 | 85 | 131 | 2.0 | 4.0 | 0.00 | 0.00 | 0.00 | 80 | 1013.4 |
| 20260903045036 | 85 | 151 | 4.0 | 6.0 | 0.00 | 0.00 | 0.00 | 80 | 1013.2 |
| 20260903044531 | 85 | 145 | 7.0 | 9.0 | 0.00 | 0.00 | 0.00 | 80 | 1013.4 |
| 20260903044027 | 86 | 128 | 4.0 | 9.0 | 0.00 | 0.00 | 0.00 | 80 | 1013.2 |
| 20260903043522 | 86 | 152 | 4.0 | 4.0 | 0.00 | 0.00 | 0.00 | 80 | 1013.2 |
| 20260903043021 | 86 | 179 | 3.0 | 4.0 | 0.00 | 0.00 | 0.00 | 80 | 1013.2 |
| 20260903042516 | 86 | 145 | 2.0 | 9.0 | 0.00 | 0.00 | 0.00 | 80 | 1013.2 |
| 20260903042012 | 86 | 165 | 6.0 | 8.0 | 0.00 | 0.00 | 0.00 | 80 | 1013.0 |
| 20260903041509 | 86 | 141 | 6.0 | 8.0 | 0.00 | 0.00 | 0.00 | 80 | 1013.2 |
| 20260903041009 | 86 | 134 | 4.0 | 7.0 | 0.00 | 0.00 | 0.00 | 80 | 1013.4 |
| 20260903040507 | 86 | 149 | 4.0 | 7.0 | 0.00 | 0.00 | 0.00 | 80 | 1013.4 |
| 20260903040004 | 86 | 134 | 6.0 | 8.0 | 0.00 | 0.00 | 0.00 | 79 | 1013.2 |
| 20260903035459 | 86 | 152 | 2.0 | 4.0 | 0.00 | 0.00 | 0.00 | 79 | 1013.2 |
| 20260903034954 | 86 | 153 | 3.0 | 4.0 | 0.00 | 0.00 | 0.00 | 79 | 1013.2 |
| 20260903034449 | 86 | 130 | 4.0 | 4.0 | 0.00 | 0.00 | 0.00 | 79 | 1013.1 |
| 20260903033944 | 86 | 148 | 1.0 | 7.0 | 0.00 | 0.00 | 0.00 | 79 | 1013.0 |
| 20260903033439 | 86 | 133 | 5.0 | 9.0 | 0.00 | 0.00 | 0.00 | 79 | 1013.0 |
| 20260903032934 | 86 | 129 | 3.0 | 7.0 | 0.00 | 0.00 | 0.00 | 79 | 1012.9 |
| 20260903032430 | 86 | 158 | 4.0 | 13.0 | 0.00 | 0.00 | 0.00 | 79 | 1013.0 |
| 20260903031925 | 86 | 165 | 3.0 | 4.0 | 0.00 | 0.00 | 0.00 | 79 | 1012.7 |
| 20260903031424 | 86 | 170 | 5.0 | 9.0 | 0.00 | 0.00 | 0.00 | 80 | 1012.8 |
| 20260903030920 | 86 | 133 | 5.0 | 11.0 | 0.00 | 0.00 | 0.00 | 79 | 1012.8 |
| 20260903030416 | 86 | 144 | 8.0 | 10.0 | 0.00 | 0.00 | 0.00 | 79 | 1012.7 |
| 20260903025911 | 86 | 132 | 4.0 | 4.0 | 0.00 | 0.00 | 0.00 | 80 | 1012.7 |
| 20260903025407 | 86 | 148 | 7.0 | 8.0 | 0.00 | 0.00 | 0.00 | 79 | 1012.7 |
| 20260903024902 | 86 | 201 | 3.0 | 7.0 | 0.00 | 0.00 | 0.00 | 79 | 1012.5 |
| 20260903024355 | 86 | 158 | 2.0 | 10.0 | 0.00 | 0.00 | 0.00 | 79 | 1012.6 |
| 20260903023850 | 86 | 192 | 6.0 | 9.0 | 0.00 | 0.00 | 0.00 | 79 | 1012.5 |
| 20260903023346 | 86 | 111 | 6.0 | 8.0 | 0.00 | 0.00 | 0.00 | 79 | 1012.4 |
| 20260903022841 | 86 | 138 | 7.0 | 14.0 | 0.00 | 0.00 | 0.00 | 78 | 1012.1 |
| 20260903022340 | 86 | 195 | 9.0 | 14.0 | 0.00 | 0.00 | 0.00 | 78 | 1012.1 |
| 20260903021839 | 86 | 163 | 6.0 | 10.0 | 0.00 | 0.00 | 0.00 | 78 | 1012.0 |
| 20260903021335 | 87 | 161 | 8.0 | 11.0 | 0.00 | 0.00 | 0.00 | 77 | 1011.9 |
| 20260903020836 | 87 | 135 | 5.0 | 8.0 | 0.00 | 0.00 | 0.00 | 77 | 1012.0 |
| 20260903020331 | 87 | 150 | 6.0 | 9.0 | 0.00 | 0.00 | 0.00 | 75 | 1011.6 |
| 20260903015831 | 87 | 142 | 3.0 | 8.0 | 0.00 | 0.00 | 0.00 | 73 | 1011.7 |
| 20260903015326 | 87 | 155 | 11.0 | 14.0 | 0.00 | 0.00 | 0.00 | 72 | 1011.5 |
| 20260903014821 | 87 | 155 | 8.0 | 13.0 | 0.00 | 0.00 | 0.00 | 71 | 1011.5 |
| 20260903014316 | 88 | 123 | 13.0 | 16.0 | 0.00 | 0.00 | 0.00 | 69 | 1011.7 |
| 20260903013811 | 88 | 156 | 7.0 | 14.0 | 0.00 | 0.00 | 0.00 | 68 | 1011.8 |
| 20260903013309 | 88 | 153 | 7.0 | 10.0 | 0.00 | 0.00 | 0.00 | 67 | 1011.9 |
| 20260903012809 | 88 | 163 | 5.0 | 7.0 | 0.00 | 0.00 | 0.00 | 66 | 1011.6 |
| 20260903012306 | 88 | 147 | 8.0 | 13.0 | 0.00 | 0.00 | 0.00 | 66 | 1011.7 |
| 20260903011803 | 88 | 181 | 10.0 | 15.0 | 0.00 | 0.00 | 0.00 | 65 | 1011.5 |
| 20260903011302 | 88 | 156 | 8.0 | 14.0 | 0.00 | 0.00 | 0.00 | 65 | 1011.3 |
| 20260903010757 | 89 | 206 | 13.0 | 17.0 | 0.00 | 0.00 | 0.00 | 64 | 1011.4 |
| 20260903010253 | 89 | 163 | 9.0 | 16.0 | 0.00 | 0.00 | 0.00 | 63 | 1011.2 |
| 20260903005752 | 89 | 99 | 9.0 | 15.0 | 0.00 | 0.00 | 0.00 | 61 | 1011.1 |
| 20260903005246 | 89 | 136 | 4.0 | 11.0 | 0.00 | 0.00 | 0.00 | 57 | 1011.0 |
| 20260903004742 | 90 | 165 | 8.0 | 18.0 | 0.00 | 0.00 | 0.00 | 57 | 1011.1 |
| 20260903004237 | 90 | 173 | 12.0 | 15.0 | 0.00 | 0.00 | 0.00 | 55 | 1011.2 |
| 20260903003733 | 90 | 166 | 13.0 | 16.0 | 0.00 | 0.00 | 0.00 | 54 | 1011.0 |
| 20260903003228 | 90 | 148 | 10.0 | 14.0 | 0.00 | 0.00 | 0.00 | 56 | 1010.9 |
| 20260903002722 | 90 | 159 | 8.0 | 15.0 | 0.00 | 0.00 | 0.00 | 56 | 1010.8 |
| 20260903002217 | 91 | 149 | 9.0 | 14.0 | 0.00 | 0.00 | 0.00 | 56 | 1010.8 |
| 20260903001713 | 91 | 126 | 9.0 | 13.0 | 0.00 | 0.00 | 0.00 | 55 | 1010.8 |
| 20260903001213 | 91 | 160 | 8.0 | 15.0 | 0.00 | 0.00 | 0.00 | 56 | 1010.5 |
| 20260903000708 | 91 | 173 | 6.0 | 14.0 | 0.00 | 0.00 | 0.00 | 56 | 1010.4 |
| 20260903000207 | 92 | 158 | 6.0 | 10.0 | 0.00 | 0.00 | 0.00 | 56 | 1010.6 |
| 20260902235706 | 92 | 139 | 9.0 | 14.0 | 0.00 | 0.00 | 0.00 | 55 | 1010.4 |
| 20260902235201 | 92 | 191 | 12.0 | 16.0 | 0.00 | 0.00 | 0.00 | 54 | 1010.3 |
| 20260902234701 | 93 | 185 | 11.0 | 17.0 | 0.00 | 0.00 | 0.00 | 53 | 1010.2 |
| 20260902234159 | 93 | 158 | 8.0 | 11.0 | 0.00 | 0.00 | 0.00 | 53 | 1010.1 |
| 20260902233654 | 93 | 125 | 4.0 | 10.0 | 0.00 | 0.00 | 0.00 | 54 | 1010.2 |
| 20260902233154 | 93 | 144 | 11.0 | 14.0 | 0.00 | 0.00 | 0.00 | 54 | 1010.2 |
| 20260902232653 | 93 | 154 | 9.0 | 13.0 | 0.00 | 0.00 | 0.00 | 54 | 1010.4 |
| 20260902232152 | 93 | 221 | 14.0 | 18.0 | 0.00 | 0.00 | 0.00 | 55 | 1010.3 |
| 20260902231647 | 94 | 184 | 10.0 | 13.0 | 0.00 | 0.00 | 0.00 | 54 | 1010.3 |
| 20260902231142 | 94 | 149 | 8.0 | 10.0 | 0.00 | 0.00 | 0.00 | 54 | 1010.1 |
| 20260902230637 | 94 | 205 | 10.0 | 15.0 | 0.00 | 0.00 | 0.00 | 54 | 1010.3 |
| 20260902230136 | 94 | 178 | 7.0 | 13.0 | 0.00 | 0.00 | 0.00 | 54 | 1010.3 |
| 20260902225631 | 94 | 193 | 9.0 | 15.0 | 0.00 | 0.00 | 0.00 | 53 | 1010.4 |
| 20260902225130 | 95 | 171 | 10.0 | 14.0 | 0.00 | 0.00 | 0.00 | 53 | 1010.2 |
| 20260902224629 | 95 | 150 | 8.0 | 13.0 | 0.00 | 0.00 | 0.00 | 54 | 1010.4 |
| 20260902224125 | 95 | 175 | 7.0 | 13.0 | 0.00 | 0.00 | 0.00 | 53 | 1010.4 |
| 20260902223621 | 95 | 140 | 6.0 | 14.0 | 0.00 | 0.00 | 0.00 | 54 | 1010.4 |
| 20260902223121 | 95 | 166 | 11.0 | 16.0 | 0.00 | 0.00 | 0.00 | 53 | 1010.4 |
| 20260902222620 | 95 | 132 | 7.0 | 8.0 | 0.00 | 0.00 | 0.00 | 53 | 1010.3 |
| 20260902222119 | 95 | 156 | 6.0 | 10.0 | 0.00 | 0.00 | 0.00 | 52 | 1010.3 |
| 20260902221619 | 95 | 135 | 7.0 | 13.0 | 0.00 | 0.00 | 0.00 | 52 | 1010.3 |
| 20260902221113 | 96 | 161 | 11.0 | 13.0 | 0.00 | 0.00 | 0.00 | 51 | 1010.5 |
| 20260902220609 | 95 | 129 | 6.0 | 13.0 | 0.00 | 0.00 | 0.00 | 52 | 1010.3 |
| 20260902215600 | 95 | 126 | 9.0 | 13.0 | 0.00 | 0.00 | 0.00 | 51 | 1010.4 |
| 20260902215055 | 95 | 174 | 8.0 | 10.0 | 0.00 | 0.00 | 0.00 | 51 | 1010.3 |
| 20260902214549 | 95 | 156 | 12.0 | 15.0 | 0.00 | 0.00 | 0.00 | 51 | 1010.4 |
| 20260902214048 | 95 | 115 | 9.0 | 13.0 | 0.00 | 0.00 | 0.00 | 51 | 1010.3 |
| 20260902213544 | 95 | 171 | 10.0 | 11.0 | 0.00 | 0.00 | 0.00 | 52 | 1010.5 |
| 20260902213043 | 95 | 152 | 2.0 | 8.0 | 0.00 | 0.00 | 0.00 | 52 | 1010.4 |
| 20260902212540 | 95 | 191 | 3.0 | 10.0 | 0.00 | 0.00 | 0.00 | 52 | 1010.7 |
| 20260902212036 | 96 | 207 | 6.0 | 14.0 | 0.00 | 0.00 | 0.00 | 51 | 1010.5 |
| 20260902211532 | 96 | 182 | 5.0 | 8.0 | 0.00 | 0.00 | 0.00 | 51 | 1010.7 |
| 20260902211026 | 96 | 164 | 6.0 | 13.0 | 0.00 | 0.00 | 0.00 | 51 | 1010.7 |
| 20260902210520 | 96 | 211 | 6.0 | 8.0 | 0.00 | 0.00 | 0.00 | 51 | 1010.8 |
| 20260902210019 | 97 | 141 | 6.0 | 11.0 | 0.00 | 0.00 | 0.00 | 51 | 1010.6 |
| 20260902205514 | 96 | 189 | 5.0 | 10.0 | 0.00 | 0.00 | 0.00 | 51 | 1010.8 |
| 20260902205010 | 96 | 215 | 6.0 | 10.0 | 0.00 | 0.00 | 0.00 | 51 | 1010.9 |
| 20260902204509 | 96 | 166 | 6.0 | 10.0 | 0.00 | 0.00 | 0.00 | 52 | 1010.8 |
| 20260902204005 | 96 | 173 | 5.0 | 13.0 | 0.00 | 0.00 | 0.00 | 52 | 1010.8 |
| 20260902203500 | 96 | 172 | 7.0 | 13.0 | 0.00 | 0.00 | 0.00 | 51 | 1011.0 |
| 20260902202958 | 96 | 235 | 6.0 | 8.0 | 0.00 | 0.00 | 0.00 | 50 | 1011.1 |
| 20260902202454 | 97 | 195 | 8.0 | 10.0 | 0.00 | 0.00 | 0.00 | 49 | 1011.1 |
| 20260902201951 | 97 | 221 | 6.0 | 8.0 | 0.00 | 0.00 | 0.00 | 50 | 1010.9 |
| 20260902201446 | 97 | 142 | 7.0 | 11.0 | 0.00 | 0.00 | 0.00 | 49 | 1011.1 |
| 20260902200945 | 96 | 232 | 2.0 | 8.0 | 0.00 | 0.00 | 0.00 | 51 | 1011.1 |
| 20260902200441 | 96 | 216 | 4.0 | 7.0 | 0.00 | 0.00 | 0.00 | 51 | 1011.2 |
| 20260902195937 | 95 | 147 | 8.0 | 11.0 | 0.00 | 0.00 | 0.00 | 52 | 1011.3 |
| 20260902195432 | 96 | 186 | 11.0 | 13.0 | 0.00 | 0.00 | 0.00 | 51 | 1011.4 |
| 20260902194931 | 96 | 217 | 4.0 | 9.0 | 0.00 | 0.00 | 0.00 | 51 | 1011.5 |
| 20260902194426 | 96 | 182 | 8.0 | 10.0 | 0.00 | 0.00 | 0.00 | 51 | 1011.6 |
| 20260902193921 | 97 | 188 | 5.0 | 8.0 | 0.00 | 0.00 | 0.00 | 49 | 1011.7 |
| 20260902193417 | 98 | 185 | 5.0 | 10.0 | 0.00 | 0.00 | 0.00 | 48 | 1011.8 |
| 20260902192915 | 98 | 232 | 5.0 | 8.0 | 0.00 | 0.00 | 0.00 | 49 | 1011.8 |
| 20260902192415 | 97 | 215 | 2.0 | 6.0 | 0.00 | 0.00 | 0.00 | 49 | 1011.8 |
| 20260902191913 | 96 | 201 | 2.0 | 4.0 | 0.00 | 0.00 | 0.00 | 51 | 1011.8 |
| 20260902191409 | 96 | 237 | 4.0 | 9.0 | 0.00 | 0.00 | 0.00 | 51 | 1012.1 |
| 20260902190904 | 95 | 164 | 6.0 | 9.0 | 0.00 | 0.00 | 0.00 | 51 | 1011.9 |
| 20260902190359 | 96 | 260 | 5.0 | 9.0 | 0.00 | 0.00 | 0.00 | 51 | 1011.8 |
| 20260902185855 | 95 | 202 | 2.0 | 3.0 | 0.00 | 0.00 | 0.00 | 52 | 1012.2 |
| 20260902185350 | 95 | 245 | 6.0 | 9.0 | 0.00 | 0.00 | 0.00 | 52 | 1012.2 |
| 20260902184845 | 96 | 223 | 6.0 | 9.0 | 0.00 | 0.00 | 0.00 | 50 | 1012.3 |
| 20260902184341 | 96 | 244 | 4.0 | 6.0 | 0.00 | 0.00 | 0.00 | 51 | 1012.3 |
| 20260902183836 | 97 | 227 | 5.0 | 10.0 | 0.00 | 0.00 | 0.00 | 51 | 1012.4 |
| 20260902183332 | 97 | 228 | 6.0 | 9.0 | 0.00 | 0.00 | 0.00 | 50 | 1012.6 |
| 20260902182828 | 96 | 211 | 5.0 | 9.0 | 0.00 | 0.00 | 0.00 | 53 | 1012.7 |
| 20260902182324 | 95 | 232 | 3.0 | 8.0 | 0.00 | 0.00 | 0.00 | 54 | 1012.8 |
| 20260902181820 | 96 | 198 | 4.0 | 8.0 | 0.00 | 0.00 | 0.00 | 54 | 1012.7 |
| 20260902181316 | 95 | 299 | 3.0 | 7.0 | 0.00 | 0.00 | 0.00 | 54 | 1013.0 |
| 20260902180810 | 94 | 238 | 5.0 | 9.0 | 0.00 | 0.00 | 0.00 | 56 | 1013.2 |
| 20260902180306 | 94 | 210 | 3.0 | 9.0 | 0.00 | 0.00 | 0.00 | 56 | 1012.9 |
| 20260902175801 | 93 | 177 | 4.0 | 4.0 | 0.00 | 0.00 | 0.00 | 56 | 1013.3 |
| 20260902175256 | 94 | 239 | 6.0 | 11.0 | 0.00 | 0.00 | 0.00 | 56 | 1013.3 |
| 20260902174757 | 94 | 301 | 6.0 | 11.0 | 0.00 | 0.00 | 0.00 | 56 | 1013.3 |
| 20260902174253 | 93 | 209 | 3.0 | 7.0 | 0.00 | 0.00 | 0.00 | 57 | 1013.4 |
| 20260902173748 | 94 | 187 | 4.0 | 10.0 | 0.00 | 0.00 | 0.00 | 57 | 1013.5 |
| 20260902173243 | 93 | 201 | 7.0 | 11.0 | 0.00 | 0.00 | 0.00 | 58 | 1013.6 |
| 20260902172738 | 92 | 236 | 6.0 | 8.0 | 0.00 | 0.00 | 0.00 | 61 | 1013.7 |
| 20260902172237 | 92 | 189 | 5.0 | 10.0 | 0.00 | 0.00 | 0.00 | 62 | 1013.7 |
| 20260902171732 | 91 | 280 | 5.0 | 8.0 | 0.00 | 0.00 | 0.00 | 62 | 1014.0 |
| 20260902171227 | 91 | 254 | 7.0 | 8.0 | 0.00 | 0.00 | 0.00 | 63 | 1014.1 |
| 20260902170724 | 91 | 213 | 4.0 | 9.0 | 0.00 | 0.00 | 0.00 | 64 | 1014.0 |
| 20260902170220 | 90 | 205 | 7.0 | 9.0 | 0.00 | 0.00 | 0.00 | 64 | 1014.1 |